TITAN 3C TRANSTAGE DEB, 26781

Orbit data source: Space-Track

TITAN 3C TRANSTAGE DEB, 26781 is space debris in HEO originally from a launch on Tue, 21 Dec 1965 UTC launched from the Air Force Eastern Test Range (AFETR). Debris objects in space refer to the collection of defunct objects orbiting the Earth. Examples of debris include non-operational satellites, rocket bodies, and fragments generated from explosions, collisions, or faulty payload assembly.

Loading next visibility...
Identifier
26781, 1965-108AZ
Orbit
HEO
Country
Flag of USUS
Related business
Manufacturer
Unknown
Mission
Spacecraft
Bus & Motor
Unknown
Mass
Unknown
Launch date (UTC)
1965-12-21 (60 years ago)
Launch vehicle
Unknown
Launch site
Air Force Eastern Test Range (AFETR)
Object type
Payload
Rocket body
Debris
Shape & HBR
Unknown shape, 0.2 m
Radar Cross Section
Medium (>0.1 m² and <1 m²)

Expand to show TLE details & history
Last TLE update: 3 days ago

TLE from 3 days ago
0 TITAN 3C TRANSTAGE DEB
1 26781U 65108AZ  26129.84848953  .00005888  00000-0  18863-1 0  9999
2 26781  27.4282 321.1043 6286877 139.1265 290.8926  3.44716211 81538
Epoch: 2026-05-09T20:21Z
TLE epoch observation values (Epoch: 2026-05-09T20:21:49.495Z)
Latitude
-0.00002°
Longitude
147.98556°
Altitude
14,938.684 km
Speed
3.983 km/s
True Right ascension
21h 24m 24s
True Declination
0° 00' 00"
Sunlit
Object was in daylight at epoch
Visualization orbit readout
Latitude
Unknown
Longitude
Unknown
Altitude
Unknown
Speed
Unknown
Apparent Right ascension
Unknown
Apparent Declination
Unknown
Sunlit
N/A
Visualization observer readout
Local Sidereal Time
18:44:00
Azimuth
Unknown
Elevation
Unknown
Doppler factor
Unknown
Orbital elements
Apogee altitude
23,775.963 km
Perigee altitude
496.47 km
Semi-major axis
18,514.354 km
Eccentricity
0.62869
Inclination
27.4282°
RAAN
321.1043°
Arg. of periapsis
139.1265°
True anomaly
220.8812°
Mean anomaly
290.8926°
Eccentric anomaly
255.94917°
Mean motion
0.86155 °/min
Orbital period
417.85 mins
BSTAR
0.018863
Loading maneuver chart data...
Computing Atmospheric mass density...

Documentation

Showing up to 5 results
|